{"data":{"norad_id":62459,"epoch":"2026-05-25T04:07:37.425216Z","epoch_age_seconds":63497,"freshness":"FRESH","line1":"1 62459U 24253A   26145.17196094  .00063200  00000+0  61001-3 0  9998","line2":"2 62459  54.9929  96.1293 0006438  97.7674 262.4098 15.65923535 78928","mean_motion":15.65923535,"eccentricity":0.0006438,"inclination_deg":54.9929,"raan_deg":96.1293,"arg_perigee_deg":97.7674,"mean_anomaly_deg":262.4098,"bstar":0.00061001,"rev_number":7892,"period_min":91.958513159456,"perigee_km":366.23916514716,"apogee_km":374.9288182961,"semimajor_km":6748.7209917216,"source":"CELESTRAK","updated_at":"2026-05-25T13:38:03.009048Z"}}